FW0788 Weather Reports


Display with metric or nautical units.
time (UTC)temp
F
wind
direction
speed
MPH
gust
MPH
rain 1hr
in
rain 24hr
in
rain mn
in
humidity
%
barometer
mb
20260906163025 52 163 1.0 6.0 0.00 0.01 0.00 85 1015.5
20260906161524 52 155 0.0 4.0 0.00 0.01 0.00 84 1015.6
20260906160022 52 157 2.0 10.0 0.00 0.01 0.00 84 1015.7
20260906154622 52 133 1.0 6.0 0.00 0.01 0.00 84 1015.7
20260906153022 52 282 2.0 7.0 0.00 0.01 0.00 84 1015.8
20260906151516 52 124 0.0 2.0 0.00 0.01 0.00 85 1016.0
20260906150018 53 191 0.0 7.0 0.00 0.01 0.00 85 1016.1
20260906144517 53 205 2.0 6.0 0.00 0.01 0.00 86 1016.2
20260906143016 53 259 0.0 9.0 0.00 0.01 0.00 86 1016.2
20260906141510 52 119 1.0 7.0 0.00 0.01 0.00 86 1016.1
20260906140029 52 165 0.0 5.0 0.00 0.01 0.00 86 1016.2
20260906134509 52 209 1.0 4.0 0.00 0.01 0.01 85 1016.3
20260906133010 53 139 0.0 6.0 0.00 0.01 0.01 85 1016.5
20260906131506 53 154 1.0 7.0 0.00 0.01 0.01 85 1016.6
20260906130009 53 171 1.0 9.0 0.00 0.01 0.01 84 1016.7
20260906124503 53 135 3.0 12.0 0.00 0.01 0.01 84 1016.7
20260906123008 54 119 3.0 7.0 0.00 0.01 0.01 84 1016.8
20260906121503 54 55 3.0 9.0 0.00 0.01 0.01 84 1016.8
20260906120001 54 169 2.0 8.0 0.00 0.01 0.01 81 1016.7
20260906114600 54 150 4.0 9.0 0.00 0.01 0.01 79 1016.7
20260906113102 54 126 4.0 11.0 0.00 0.01 0.01 79 1016.5
20260906111557 54 180 3.0 14.0 0.00 0.01 0.01 78 1016.3
20260906110100 54 179 2.0 9.0 0.00 0.01 0.01 79 1016.3
20260906104556 54 158 2.0 9.0 0.00 0.01 0.01 80 1016.3
20260906103054 54 67 2.0 14.0 0.00 0.01 0.01 80 1016.0
20260906101553 54 173 3.0 9.0 0.00 0.01 0.01 80 1016.0
20260906100052 54 94 2.0 8.0 0.00 0.01 0.01 81 1016.0
20260906094604 55 145 2.0 6.0 0.00 0.02 0.01 83 1016.0
20260906093100 55 173 0.0 9.0 0.00 0.02 0.01 83 1016.1
20260906091549 55 124 2.0 9.0 0.00 0.02 0.01 84 1016.1
20260906090119 54 62 0.0 9.0 0.00 0.02 0.01 87 1016.1
20260906084554 54 228 0.0 0.0 0.00 0.05 0.01 88 1016.1
20260906083048 54 196 0.0 0.0 0.00 0.05 0.01 88 1016.0
20260906081548 55 196 0.0 0.0 0.00 0.05 0.01 87 1016.0
20260906080055 55 196 0.0 2.0 0.00 0.05 0.01 86 1016.0
20260906074552 56 188 0.0 1.0 0.00 0.05 0.01 85 1015.9
20260906073046 56 189 0.0 4.0 0.00 0.05 0.01 82 1016.1
20260906071545 57 157 1.0 5.0 0.00 0.05 0.01 79 1016.1
20260906070045 58 178 1.0 8.0 0.00 0.05 0.01 77 1016.0
20260906064544 58 59 1.0 6.0 0.00 0.05 0.01 76 1015.8
20260906063043 59 201 2.0 9.0 0.00 0.05 0.01 74 1015.7
20260906061549 60 263 3.0 7.0 0.00 0.05 0.01 71 1015.8
20260906060042 61 86 2.0 8.0 0.00 0.05 0.01 68 1015.9
20260906054545 61 178 3.0 11.0 0.00 0.09 0.01 66 1015.7
20260906053047 61 146 4.0 11.0 0.00 0.09 0.01 66 1016.0
20260906051540 61 143 3.0 8.0 0.00 0.09 0.01 67 1015.8
20260906050040 62 147 2.0 10.0 0.00 0.09 0.01 66 1015.7
20260906044539 63 254 3.0 9.0 0.00 0.09 0.01 66 1015.6
20260906043038 62 278 3.0 8.0 0.00 0.09 0.01 66 1015.6
20260906041547 63 221 3.0 8.0 0.00 0.09 0.01 65 1015.7
20260906040037 63 265 3.0 10.0 0.00 0.09 0.01 65 1015.6
20260906034542 63 191 3.0 9.0 0.00 0.09 0.01 63 1015.6
20260906033036 64 192 4.0 11.0 0.00 0.09 0.01 60 1015.6
20260906031539 64 267 4.0 11.0 0.00 0.09 0.01 64 1015.7
20260906030036 65 244 2.0 8.0 0.00 0.09 0.01 64 1015.6
20260906024530 65 240 2.0 8.0 0.00 0.09 0.01 63 1015.6
20260906023028 64 171 1.0 9.0 0.00 0.09 0.01 66 1015.6
20260906021527 64 272 3.0 7.0 0.00 0.09 0.01 66 1015.6
20260906020024 64 275 3.0 7.0 0.00 0.09 0.01 67 1015.7
20260906014623 63 288 2.0 9.0 0.00 0.10 0.01 68 1015.8
20260906013024 63 282 2.0 6.0 0.00 0.10 0.01 69 1015.7
20260906011519 63 275 2.0 7.0 0.00 0.10 0.01 69 1015.7
20260906010035 62 306 0.0 4.0 0.00 0.10 0.01 71 1015.7
20260906004514 62 267 0.0 0.0 0.00 0.12 0.01 71 1015.7
20260906003010 62 136 0.0 0.0 0.00 0.12 0.01 69 1015.5
20260906001506 61 254 0.0 0.0 0.00 0.12 0.01 73 1015.4
20260906000002 60 293 0.0 0.0 0.00 0.24 0.01 76 1015.3
20260905234602 60 66 0.0 0.0 0.00 0.24 0.01 79 1015.1
20260905233053 59 218 0.0 0.0 0.00 0.24 0.01 80 1015.0
20260905231551 58 360 0.0 0.0 0.00 0.24 0.01 86 1015.0
20260905230049 56 133 0.0 0.0 0.00 0.24 0.01 92 1015.0
20260905224545 55 133 0.0 0.0 0.00 0.28 0.01 96 1014.8
20260905223041 53 133 0.0 0.0 0.00 0.28 0.01 96 1014.5
20260905221535 50 133 0.0 0.0 0.00 0.28 0.01 96 1014.5
20260905220028 48 132 0.0 0.0 0.00 0.28 0.01 95 1014.1
20260905214522 46 132 0.0 0.0 0.00 0.35 0.01 95 1013.7
20260905213020 44 132 0.0 0.0 0.00 0.35 0.01 95 1013.5
20260905211533 43 132 0.0 0.0 0.00 0.35 0.01 95 1012.9
20260905210012 42 132 0.0 0.0 0.00 0.35 0.01 94 1012.4
20260905204506 43 132 0.0 0.0 0.00 0.50 0.01 95 1012.0
20260905203003 43 132 0.0 0.0 0.00 0.50 0.01 95 1011.5
20260905201504 43 132 0.0 0.0 0.00 0.50 0.01 95 1011.3
20260905200100 43 132 0.0 0.0 0.00 0.50 0.01 95 1011.0
20260905194557 44 132 0.0 0.0 0.00 0.66 0.01 95 1010.5
20260905193055 44 132 0.0 0.0 0.00 0.66 0.01 95 1010.5
20260905191553 44 132 0.0 0.0 0.00 0.66 0.01 95 1010.3
20260905190054 43 132 0.0 0.0 0.00 0.66 0.01 95 1010.0
20260905184549 42 132 0.0 0.0 0.01 0.80 0.01 95 1009.4
20260905183106 42 132 0.0 0.0 0.01 0.80 0.01 95 1009.1
20260905181543 41 132 0.0 0.0 0.01 0.80 0.01 94 1008.8
20260905180049 42 132 0.0 0.0 0.01 0.80 0.01 94 1008.3
20260905174538 42 132 0.0 0.0 0.00 0.83 0.00 94 1007.9
20260905173032 42 132 0.0 0.0 0.00 0.83 0.00 94 1007.3
20260905171532 43 132 0.0 0.0 0.00 0.83 0.00 94 1007.0
20260905170028 43 132 0.0 0.0 0.00 0.83 0.00 94 1006.5
20260905164524 43 132 0.0 0.0 0.00 0.86 0.00 94 1005.7